Temp
15 14 14 14 14 14 14 14 14 13 12 12 12 11 11 11 10 10 10 9 9 9
14 14 14 14 14 14 14 14 13 13 12 11 11 11 11 10 10 9 9 9 9 9
14 14 14 14 14 14 14 13 13 12 12 11 11 11 10 10 9 9 9 9 8 8
13 13 13 13 14 13 13 13 12 12 11 11 10 10 10 9 9 8 8 8 8 8
11 12 12 12 13 13 13 12 12 12 11 11 10 10 9 9 9 8 8 8 7 7
10 10 11 11 12 12 12 12 12 11 11 10 10 9 9 9 9 8 8 7 7 7
9 9 10 10 11 11 12 11 11 11 10 9 9 9 8 9 8 7 7 7 7 6
7 8 9 9 10 10 10 10 10 10 9 9 8 8 8 8 7 6 6 6 5 5
6 7 8 8 8 9 9 9 9 9 8 7 7 7 7 7 6 6 5 5 4 4
5 6 7 7 8 8 8 8 8 7 7 7 7 7 6 5 5 5 5 4 4 3
4 4 4 5 6 7 7 7 7 6 6 6 6 6 5 5 4 4 4 3 3 2
2 3 3 4 5 6 6 6 6 6 6 5 5 5 4 4 4 3 2 2 2 2
2 2 2 3 4 5 5 5 6 6 6 5 5 5 4 4 3 2 2 2 2 2
1 2 2 2 3 3 4 5 5 5 5 6 5 4 4 3 3 3 2 2 1 1
Height
805 805 805 804 803 803 804 807 809 810 811 813 814 815 816 818 820 821 821 823 825 824
801 801 802 803 802 801 801 802 803 806 808 809 811 811 812 811 814 818 817 818 820 820
797 797 796 797 797 797 798 799 800 801 803 804 805 806 808 810 810 811 811 814 815 816
794 793 792 791 791 791 791 793 794 795 796 798 800 802 802 805 806 809 809 811 810 812
791 788 787 786 786 787 787 788 789 789 791 791 793 796 798 800 798 804 804 806 808 808
789 786 784 782 782 782 782 782 784 784 786 786 787 789 791 793 794 798 801 803 803 804
786 783 781 779 778 777 777 776 777 777 779 781 782 782 784 785 789 793 797 798 798 799
787 783 779 777 775 774 773 772 772 772 773 776 780 783 785 786 785 786 793 794 795 796
786 781 777 774 772 770 769 767 766 767 770 773 776 777 780 782 781 781 786 789 792 793
786 781 776 772 768 766 764 764 763 764 764 765 769 771 774 777 779 780 784 788 786 788
783 779 774 769 766 762 759 757 757 758 761 761 764 766 769 773 776 778 780 782 785 784
784 778 773 768 763 759 755 753 750 751 754 756 760 763 767 769 772 775 778 778 779 781
782 777 771 766 760 756 750 747 745 743 749 751 756 758 760 765 769 773 775 775 777 778
777 772 767 761 756 751 747 740 740 739 743 746 750 753 757 761 764 768 771 775 774 776
Wind_Speed
23 24 26 27 32 33 31 29 28 27 25 23 21 19 16 14 14 13 12 12 11 11
24 26 28 28 30 33 31 29 28 27 27 24 23 21 18 18 16 14 12 12 14 13
21 27 28 30 30 34 33 29 28 27 28 27 26 23 20 19 16 17 14 15 14 12
20 23 25 30 33 32 32 31 30 31 31 29 27 24 22 20 17 19 16 16 14 15
20 21 21 24 28 31 30 31 32 33 31 31 30 27 25 23 19 21 19 16 15 13
22 21 21 23 25 28 29 31 32 33 33 33 31 29 28 25 21 21 19 17 15 12
27 26 24 22 22 24 27 32 33 34 33 33 34 33 31 25 22 19 18 16 14 13
26 25 24 23 23 24 27 29 31 32 31 28 25 26 25 23 21 16 16 13 12 10
31 29 26 23 23 24 24 25 27 26 23 21 22 24 25 23 19 17 17 14 10 9
26 27 29 27 24 24 25 24 23 23 25 27 29 28 23 21 17 17 13 11 10 9
30 29 29 26 27 26 26 26 23 20 19 17 18 17 15 18 17 13 13 12 10 6
28 28 29 28 26 29 27 26 25 22 19 16 16 17 20 19 16 16 12 10 7 4
27 27 27 28 27 26 29 30 27 25 22 18 19 20 21 20 20 17 12 9 6 4
28 26 26 30 28 30 28 29 26 22 22 24 25 22 24 21 22 16 13 11 7 6
Wind_Direction
239 241 247 244 231 225 226 234 234 227 223 221 218 216 217 224 227 227 231 240 250 252
250 250 251 252 239 230 235 240 234 229 225 222 219 217 216 215 221 228 228 233 243 246
276 261 259 254 248 239 243 242 237 229 225 220 217 215 216 218 217 220 221 230 232 245
305 287 271 256 251 245 238 235 233 231 224 219 217 216 213 215 216 225 225 226 235 235
308 305 284 270 259 248 238 233 232 230 225 221 217 215 213 215 210 222 222 229 226 231
327 313 297 281 269 252 243 239 233 228 228 227 220 214 213 213 215 221 226 225 224 232
337 323 311 292 274 253 248 239 235 234 235 230 223 217 215 208 211 214 224 223 228 227
337 328 311 295 283 270 257 250 243 236 229 227 230 228 223 215 209 207 215 224 220 230
348 341 323 301 286 273 259 245 237 229 225 231 230 227 229 227 205 205 213 215 226 239
343 339 333 313 289 274 258 244 236 231 220 222 231 225 216 213 221 201 204 219 215 228
337 333 329 316 294 274 257 242 233 226 229 221 223 218 221 218 196 197 200 206 222 220
328 323 321 318 295 268 247 234 220 214 209 207 213 223 216 196 194 201 197 189 193 236
321 318 315 310 311 295 250 231 218 213 217 220 222 222 202 199 198 186 189 183 197 223
314 312 310 310 299 297 286 238 220 216 209 216 229 218 198 193 195 190 189 197 199 218